• In Hungary
  • List of Countries
  • For 7 days
  • Water Temperature
  • Satellite Maps
  • Weather Map
  • News
  • Weather Widgets
  • user-avatar
    Login

    Hourly Weather Nelson

    Today, 20 November, Monday

    Time Temperature Precipitation Wind Pressure Humidity
    00:00 +4°C° 0.1 mm 3 mps 743 mmHg 90%
    01:00 +4°C° 0.7 mm 4 mps 742 mmHg 91%
    02:00 +5°C° 0.7 mm 5 mps 741 mmHg 93%
    03:00 +6°C° 0.7 mm 5 mps 740 mmHg 94%
    04:00 +7°C° 0.5 mm 6 mps 739 mmHg 93%
    05:00 +8°C° 0.5 mm 7 mps 739 mmHg 93%
    06:00 +9°C° 0.5 mm 7 mps 738 mmHg 93%
    07:00 +9°C° 0.2 mm 7 mps 738 mmHg 92%
    08:00 +9°C° 0.2 mm 8 mps 737 mmHg 92%
    09:00 +10°C° 0.2 mm 8 mps 737 mmHg 91%
    10:00 +10°C° 0.1 mm 8 mps 737 mmHg 89%
    11:00 +11°C° 0.1 mm 8 mps 737 mmHg 86%
    12:00 +11°C° 0.1 mm 9 mps 737 mmHg 83%
    13:00 +11°C° 0.4 mm 9 mps 736 mmHg 83%
    14:00 +11°C° 0.4 mm 9 mps 736 mmHg 82%
    15:00 +11°C° 0.4 mm 9 mps 736 mmHg 82%
    16:00 +10°C° 0.1 mm 8 mps 736 mmHg 84%
    17:00 +10°C° 0.1 mm 7 mps 737 mmHg 86%
    18:00 +9°C° 0.1 mm 6 mps 737 mmHg 88%
    19:00 +9°C° 0 mm 5 mps 737 mmHg 90%
    20:00 +10°C° 0 mm 4 mps 737 mmHg 92%
    21:00 +8°C° 0 mm 4 mps 738 mmHg 94%
    22:00 +9°C° 0.3 mm 3 mps 738 mmHg 95%
    23:00 +9°C° 0.3 mm 3 mps 738 mmHg 95%

    Tomorrow, 21 November, Tuesday

    Time Temperature Precipitation Wind Pressure Humidity
    00:00 +9°C° 0.3 mm 2 mps 738 mmHg 96%
    01:00 +9°C° 0.5 mm 2 mps 737 mmHg 96%
    02:00 +9°C° 0.5 mm 2 mps 737 mmHg 97%
    03:00 +9°C° 0.5 mm 2 mps 737 mmHg 97%
    04:00 +10°C° 0.3 mm 3 mps 737 mmHg 96%
    05:00 +10°C° 0.3 mm 3 mps 736 mmHg 96%
    06:00 +11°C° 0.3 mm 4 mps 736 mmHg 96%
    07:00 +10°C° 0.1 mm 5 mps 736 mmHg 95%
    08:00 +10°C° 0.1 mm 5 mps 735 mmHg 94%
    09:00 +10°C° 0.1 mm 5 mps 735 mmHg 94%
    10:00 +10°C° 0 mm 5 mps 735 mmHg 90%
    11:00 +10°C° 0 mm 6 mps 734 mmHg 87%
    12:00 +11°C° 0 mm 6 mps 734 mmHg 83%
    13:00 +10°C° 0 mm 6 mps 733 mmHg 83%
    14:00 +10°C° 0 mm 6 mps 733 mmHg 83%
    15:00 +10°C° 0 mm 7 mps 732 mmHg 83%
    16:00 +10°C° 0.2 mm 7 mps 731 mmHg 84%
    17:00 +10°C° 0.2 mm 8 mps 730 mmHg 85%
    18:00 +11°C° 0.2 mm 8 mps 730 mmHg 86%
    19:00 +11°C° 0.6 mm 8 mps 729 mmHg 87%
    20:00 +11°C° 0.6 mm 8 mps 729 mmHg 89%
    21:00 +11°C° 0.6 mm 8 mps 728 mmHg 90%
    22:00 +11°C° 0.8 mm 8 mps 728 mmHg 90%
    23:00 +11°C° 0.8 mm 8 mps 728 mmHg 90%

    Day after tomorrow, 22 November, Wednesday

    Time Temperature Precipitation Wind Pressure Humidity
    00:00 +12°C° 0.8 mm 8 mps 727 mmHg 90%
    01:00 +12°C° 1.9 mm 8 mps 727 mmHg 89%
    02:00 +12°C° 1.9 mm 8 mps 727 mmHg 88%
    03:00 +11°C° 1.9 mm 8 mps 726 mmHg 88%
    04:00 +12°C° 1.3 mm 8 mps 726 mmHg 87%
    05:00 +12°C° 1.3 mm 8 mps 726 mmHg 86%
    06:00 +12°C° 1.3 mm 8 mps 726 mmHg 85%
    07:00 +11°C° 0.3 mm 8 mps 725 mmHg 85%
    08:00 +11°C° 0.3 mm 7 mps 725 mmHg 85%
    09:00 +11°C° 0.3 mm 7 mps 725 mmHg 86%
    10:00 +11°C° 0.6 mm 8 mps 724 mmHg 84%
    11:00 +12°C° 0.6 mm 9 mps 723 mmHg 81%
    12:00 +12°C° 0.6 mm 10 mps 722 mmHg 79%
    13:00 +12°C° 0.9 mm 10 mps 721 mmHg 80%
    14:00 +12°C° 0.9 mm 10 mps 721 mmHg 81%
    15:00 +12°C° 0.9 mm 10 mps 720 mmHg 82%
    16:00 +12°C° 0.9 mm 9 mps 719 mmHg 82%
    17:00 +12°C° 0.9 mm 8 mps 719 mmHg 83%
    18:00 +11°C° 0.9 mm 8 mps 718 mmHg 83%
    19:00 +11°C° 0.6 mm 8 mps 719 mmHg 82%
    20:00 +11°C° 0.6 mm 9 mps 719 mmHg 81%
    21:00 +11°C° 0.6 mm 9 mps 719 mmHg 81%
    22:00 +11°C° 0.5 mm 9 mps 719 mmHg 81%
    23:00 +10°C° 0.5 mm 9 mps 720 mmHg 82%

    23 November, Thursday

    Time Temperature Precipitation Wind Pressure Humidity
    00:00 +10°C° 0.5 mm 8 mps 721 mmHg 83%
    01:00 +10°C° 0.1 mm 8 mps 722 mmHg 84%
    02:00 +10°C° 0.1 mm 8 mps 723 mmHg 84%
    03:00 +10°C° 0.1 mm 7 mps 724 mmHg 85%
    04:00 +10°C° 0.1 mm 7 mps 725 mmHg 85%
    05:00 +10°C° 0.1 mm 7 mps 725 mmHg 84%
    06:00 +9°C° 0.1 mm 7 mps 726 mmHg 83%
    07:00 +9°C° 0 mm 7 mps 727 mmHg 84%
    08:00 +9°C° 0 mm 7 mps 727 mmHg 84%
    09:00 +9°C° 0 mm 6 mps 728 mmHg 85%
    10:00 +10°C° 0.1 mm 7 mps 728 mmHg 83%
    11:00 +11°C° 0.1 mm 7 mps 728 mmHg 82%
    12:00 +12°C° 0.1 mm 8 mps 728 mmHg 81%
    13:00 +12°C° 0.1 mm 8 mps 728 mmHg 80%
    14:00 +12°C° 0.1 mm 8 mps 728 mmHg 79%
    15:00 +12°C° 0.1 mm 7 mps 728 mmHg 78%
    16:00 +11°C° 0.2 mm 7 mps 728 mmHg 78%
    17:00 +11°C° 0.2 mm 7 mps 728 mmHg 78%
    18:00 +10°C° 0.2 mm 7 mps 728 mmHg 79%
    19:00 +10°C° 0.1 mm 7 mps 728 mmHg 80%
    20:00 +10°C° 0.1 mm 7 mps 728 mmHg 81%
    21:00 +9°C° 0.1 mm 6 mps 728 mmHg 82%
    22:00 +9°C° 0.2 mm 7 mps 728 mmHg 83%
    23:00 +9°C° 0.2 mm 7 mps 728 mmHg 84%

    24 November, Friday

    Time Temperature Precipitation Wind Pressure Humidity
    00:00 +9°C° 0.2 mm 7 mps 729 mmHg 85%
    01:00 +9°C° 0.4 mm 7 mps 729 mmHg 85%
    02:00 +9°C° 0.4 mm 7 mps 729 mmHg 85%
    03:00 +9°C° 0.4 mm 7 mps 729 mmHg 85%
    04:00 +9°C° 0.2 mm 6 mps 729 mmHg 84%
    05:00 +8°C° 0.2 mm 6 mps 729 mmHg 83%
    06:00 +8°C° 0.2 mm 5 mps 729 mmHg 82%
    07:00 +8°C° 0.2 mm 5 mps 730 mmHg 82%
    08:00 +7°C° 0.2 mm 5 mps 730 mmHg 82%
    09:00 +7°C° 0.2 mm 4 mps 730 mmHg 81%
    10:00 +7°C° 0.1 mm 4 mps 730 mmHg 79%
    11:00 +7°C° 0.1 mm 5 mps 730 mmHg 77%
    12:00 +7°C° 0.1 mm 5 mps 730 mmHg 74%
    13:00 +7°C° 0 mm 4 mps 731 mmHg 74%
    14:00 +7°C° 0 mm 4 mps 731 mmHg 74%
    15:00 +6°C° 0 mm 4 mps 731 mmHg 74%
    16:00 +7°C° 0 mm 3 mps 732 mmHg 75%
    17:00 +7°C° 0 mm 2 mps 732 mmHg 76%
    18:00 +7°C° 0 mm 2 mps 732 mmHg 78%
    19:00 +6°C° 0 mm 2 mps 733 mmHg 78%
    20:00 +7°C° 0 mm 1 mps 733 mmHg 78%
    21:00 +7°C° 0 mm 1 mps 733 mmHg 79%
    22:00 +6°C° 0 mm 2 mps 733 mmHg 79%
    23:00 +6°C° 0 mm 2 mps 733 mmHg 79%

    25 November, Saturday

    Time Temperature Precipitation Wind Pressure Humidity
    00:00 +5°C° 0 mm 3 mps 733 mmHg 79%
    01:00 +4°C° 0.1 mm 3 mps 732 mmHg 78%
    02:00 +4°C° 0.1 mm 4 mps 732 mmHg 77%
    03:00 +4°C° 0.1 mm 4 mps 731 mmHg 77%
    04:00 +3°C° 0.7 mm 5 mps 730 mmHg 77%
    05:00 +2°C° 0.7 mm 6 mps 729 mmHg 77%
    06:00 +2°C° 0.7 mm 7 mps 728 mmHg 77%
    07:00 +2°C° 1.8 mm 7 mps 728 mmHg 79%
    08:00 +2°C° 1.8 mm 7 mps 728 mmHg 80%
    09:00 +2°C° 1.8 mm 7 mps 728 mmHg 82%
    10:00 +2°C° 1.1 mm 7 mps 729 mmHg 83%
    11:00 +2°C° 1.1 mm 6 mps 730 mmHg 83%
    12:00 +2°C° 1.1 mm 6 mps 730 mmHg 84%
    13:00 +2°C° 0.1 mm 5 mps 731 mmHg 83%
    14:00 +2°C° 0.1 mm 5 mps 733 mmHg 82%
    15:00 +3°C° 0.1 mm 4 mps 734 mmHg 81%
    16:00 +1°C° 0 mm 4 mps 735 mmHg 81%
    17:00 +2°C° 0 mm 3 mps 737 mmHg 81%
    18:00 +2°C° 0 mm 2 mps 738 mmHg 81%
    19:00 +2°C° 0 mm 2 mps 739 mmHg 81%
    20:00 +1°C° 0 mm 2 mps 739 mmHg 81%
    21:00 +1°C° 0 mm 2 mps 740 mmHg 82%
    22:00 +1°C° 0 mm 2 mps 740 mmHg 82%
    23:00 0°C° 0 mm 3 mps 740 mmHg 82%
    Show more